Location: Baumgartsau
(48.4586°N, 14.0864°E)
Time: 13:24:46
(UTC+00:00)

Cosmos 1812 Rocket - Pass Details

Date: 09 April 2020
Orbit: 607 x 631 km, 82.5° (Epoch: 27 May)

Event Time Altitude Azimuth Distance (km) Brightness Sun altitude
Exits shadow 19:25:18 26° 148° (SSE) 1,210 4.5 -15.9°
Maximum altitude 19:27:17 43° 93° (E) 859 3.9 -16.1°
Drops below altitude 10° 19:31:24 10° 22° (NNE) 1,969 6.3 -16.7°
Sets 19:33:42 0° 16° (NNE) 2,878 7.2 -17.0°
